Regional Weather Roundup
Issued by NWS Goodland, KS

Home | Current Version | Previous Version | Graphics & Text | Print | Product List | Glossary On
Versions: 1 2 3 4 5 6 7 8 9 10 11 12 13 14 15 16 17 18 19 20 21 22 23 24 25 26 27 28 29 30 31 32 33 34 35 36 37 38 39 40 41 42 43 44 45 46 47 48 49 50
000
ASUS43 KGLD 010259
RWRGLD

GOODLAND FORECAST AREA HOURLY WEATHER ROUNDUP
NATIONAL WEATHER SERVICE GOODLAND KS
900 PM MDT THU JUL 31 2014

...OFFICIAL OBSERVATIONS...

CITY           SKY/WX    TMP DP  RH WIND       PRES   REMARKS
GOODLAND KS    CLEAR     68  52  56 SW6       30.16R
HILL CITY KS   MOCLDY    79  53  40 S5        30.04R
IMPERIAL NEB   CLEAR     73  59  61 CALM      30.12R
MCCOOK NEB     PTCLDY    75  55  49 NW3       30.08R
AKRON CO       CLEAR     68  53  58 W5        30.21R
BURLINGTON CO  PTCLDY    66  52  60 SW8       30.20R
LIMON CO       PTCLDY    62  52  69 SW6       30.27R
$$

...UNOFFICIAL OBSERVATIONS...

CITY           SKY/WX    TMP DP  RH WIND       PRES   REMARKS
COLBY KS       CLEAR     66  59  77 SW6       30.12R
GOVE KS          N/A     72  32  23 MISG        N/A
NORTON KS      MOCLDY    79  48  34 CALM      30.05R
WAKEENEY KS      N/A     77  47  34 MISG        N/A
KIT CARSON CO    N/A     68  55  63 CALM        N/A
YUMA CO          N/A     68  56  64 S6          N/A
$$



USA.gov is the U.S. government's official web portal to all federal, state and local government web resources and services.